Needles, CA

2:18 AM PDT on May 29, 2017 (GMT -0700)
Needles

Weather History for KEED - September, 2012

Change the Weather History Date:

Friday, September 14, 2012

  Actual Average Record
Temperature  
Mean Temperature 90 °F 88 °F  
Max Temperature 104 °F 101 °F 114 °F (1922)
Min Temperature 78 °F 75 °F 52 °F (1909)
Degree Days  
Heating Degree Days 0    
Cooling Degree Days 25    
Growing Degree Days 40 (Base 50)    
Moisture  
Dew Point 41 °F    
Average Humidity 19    
Maximum Humidity 29    
Minimum Humidity 11    
Precipitation  
Precipitation 0.00 in 0.02 in 0.52 in (1923)
Month to date precipitation 0.24  
Year to date precipitation 3.26  
Sea Level Pressure  
Sea Level Pressure 29.93 in    
Wind  
Wind Speed 3 mph (North)    
Max Wind Speed 9 mph    
Max Gust Speed -    
Visibility 10 miles    
Events      
T = Trace of Precipitation, MM = Missing Value Source: NWS Daily Summary

Daily Weather History Graph

Daily Weather History Graph

Search for Another Location

Airport or City:

Trip Planner

Search our weather history database for the weather conditions in past years. The results will help you decide how hot, cold, wet, or windy it might be!

Date:

Astronomy

Sep. 14, 2012 Rise Set
Actual Time 6:21 AM PDT 6:45 PM PDT
Civil Twilight 5:55 AM PDT 7:11 PM PDT
Nautical Twilight 5:26 AM PDT 7:40 PM PDT
Astronomical Twilight 4:55 AM PDT 8:10 PM PDT
Moon 4:51 AM PDT (9/14) 5:44 PM PDT (9/14)
Length of Visible Light 13h 15m
Length of Day
12h 24m
Waning Crescent, 2% of the Moon is Illuminated
Sep 14
Waning Crescent
Sep 15
New
Sep 22
First Quarter
Sep 29
Full
Oct 8
Last Quarter

Hourly Weather History & Observations

Time (PDT) Temp. Dew Point Humidity Pressure Visibility Wind Dir Wind Speed Gust Speed Precip Events Conditions
12:56 AM 86.0 °F 37.0 °F 18% 29.91 in 10.0 mi Calm Calm - N/A   Clear
1:56 AM 82.0 °F 41.0 °F 23% 29.92 in 10.0 mi WSW 4.6 mph - N/A   Clear
2:56 AM 79.0 °F 42.1 °F 27% 29.93 in 10.0 mi Calm Calm - N/A   Clear
4:56 AM 78.1 °F 43.0 °F 29% 29.95 in 10.0 mi Calm Calm - N/A   Unknown
5:56 AM 78.1 °F 42.1 °F 28% 29.97 in 10.0 mi WSW 6.9 mph - N/A   Clear
6:56 AM 78.1 °F 43.0 °F 29% 29.99 in 10.0 mi Calm Calm - N/A   Clear
7:56 AM 84.0 °F 45.0 °F 25% 29.99 in 10.0 mi Calm Calm - N/A   Clear
8:56 AM 88.0 °F 45.0 °F 22% 30.01 in 10.0 mi Calm Calm - N/A   Clear
9:56 AM 91.9 °F 45.0 °F 20% 30.01 in 10.0 mi Calm Calm - N/A   Clear
10:56 AM 95.0 °F 43.0 °F 17% 30.00 in 10.0 mi NNE 5.8 mph - N/A   Clear
11:56 AM 97.0 °F 42.1 °F 15% 29.98 in 10.0 mi Variable 4.6 mph - N/A   Clear
12:56 PM 100.9 °F 41.0 °F 13% 29.96 in 10.0 mi Variable 4.6 mph - N/A   Clear
1:56 PM 100.9 °F 41.0 °F 13% 29.92 in 10.0 mi Calm Calm - N/A   Clear
2:56 PM 102.0 °F 41.0 °F 12% 29.89 in 10.0 mi ENE 8.1 mph - N/A   Clear
3:56 PM 102.9 °F 39.0 °F 11% 29.87 in 10.0 mi East 3.5 mph - N/A   Clear
4:56 PM 102.9 °F 37.9 °F 11% 29.86 in 10.0 mi NNE 4.6 mph - N/A   Clear
5:56 PM 102.0 °F 37.9 °F 11% 29.85 in 10.0 mi North 6.9 mph - N/A   Clear
6:56 PM 99.0 °F 39.9 °F 13% 29.85 in 10.0 mi North 3.5 mph - N/A   Clear
7:56 PM 95.0 °F 39.9 °F 15% 29.86 in 10.0 mi NNW 6.9 mph - N/A   Clear
8:56 PM 93.0 °F 41.0 °F 16% 29.88 in 10.0 mi North 9.2 mph - N/A   Clear
9:56 PM 91.0 °F 42.1 °F 18% 29.90 in 10.0 mi SE 5.8 mph - N/A   Clear
10:56 PM 86.0 °F 41.0 °F 20% 29.91 in 10.0 mi West 4.6 mph - N/A   Clear
11:56 PM 86.0 °F 41.0 °F 20% 29.92 in 10.0 mi NNW 5.8 mph - N/A   Clear